Location: Gündelbach
(48.9934°N, 8.9415°E)
Time: 20:25:15
(UTC+00:00)

NOSS 2-1 (E) - Pass Details

Date: 14 August 2025
Orbit: 385 x 1749 km, 63.3° (Epoch: 7 May)

Event Time Altitude Azimuth Distance (km) Brightness Sun altitude
Exits shadow 02:00:07 44° 282° (WNW) 600 3.3 -18.4°
Maximum altitude 02:00:37 49° 315° (NW) 547 3.3 -18.4°
Drops below altitude 10° 02:03:36 10° 33° (NNE) 1,431 6.7 -18.1°
Sets 02:05:35 0° 39° (NE) 2,279 8.2 -17.8°
